Weather History for Gillette, WY

Change the Weather History Date:

Saturday, March 23, 2013

  Actual Average Record
Temperature  
Mean Temperature 20 °F 36 °F  
Max Temperature 28 °F 49 °F 78 °F (2012)
Min Temperature 11 °F 24 °F -12 °F (1965)
Degree Days  
Heating Degree Days 45 28  
Month to date heating degree days 717 718  
Since 1 July heating degree days 5840 6126  
Cooling Degree Days 0 0  
Month to date cooling degree days 0 0  
Year to date cooling degree days 0 0  
Moisture  
Dew Point 12 °F    
Average Humidity 76    
Maximum Humidity 88    
Minimum Humidity 63    
Precipitation  
Precipitation T in 0.03 in 0.25 in (1936)
Month to date precipitation 0.26 0.65  
Year to date precipitation 1.39 1.43  
Sea Level Pressure  
Sea Level Pressure 30.21 in    
Wind  
Wind Speed 9 mph (NW)    
Max Wind Speed 18 mph    
Max Gust Speed 22 mph    
Visibility 7 miles    
Events Snow    
T = Trace of Precipitation, MM = Missing Value Source: NWS Daily Summary

Daily Weather History Graph

Daily Weather History Graph

Search for Another Location

Airport:

Trip Planner

Search our weather history database for the weather conditions in past years. The results will help you decide how hot, cold, wet, or windy it might be!

Date:

Astronomy

Mar. 23, 2013 Rise Set
Actual Time 6:59 AM MDT 7:18 PM MDT
Civil Twilight 6:30 AM MDT 7:47 PM MDT
Nautical Twilight 5:56 AM MDT 8:22 PM MDT
Astronomical Twilight 5:21 AM MDT 8:57 PM MDT
Moon 3:41 PM MDT (3/23) 4:44 AM MDT (3/23)
Length of Visible Light 13h 17m
Length of Day
12h 19m
Waxing Gibbous, 85% of the Moon is Illuminated
Mar 23
Waxing Gibbous
Mar 27
Full
Apr 2
Last Quarter
Apr 10
New
Apr 18
First Quarter

Hourly Weather History & Observations

Time (MDT) Temp. Windchill Dew Point Humidity Pressure Visibility Wind Dir Wind Speed Gust Speed Precip Events Conditions
12:22 AM 15.8 °F 10.2 °F 14.0 °F 93% 30.04 in 3.0 mi ENE 3.5 mph - 0.00 in Snow Light Snow
12:53 AM 15.1 °F 7.7 °F 12.9 °F 91% 30.19 in 7.0 mi North 4.6 mph - 0.00 in   Overcast
1:19 AM 10.4 °F - 10.4 °F 100% 30.05 in 4.0 mi Calm Calm - 0.00 in Snow Light Snow
1:53 AM 15.1 °F - 12.9 °F 91% 30.20 in 3.0 mi Calm Calm - 0.00 in Snow Light Snow
2:53 AM 16.0 °F - 12.9 °F 88% 30.19 in 7.0 mi Calm Calm - 0.00 in Snow Light Snow
3:17 AM 15.8 °F 7.2 °F 12.2 °F 86% 30.06 in 10.0 mi WNW 5.8 mph - 0.00 in   Overcast
3:53 AM 12.9 °F -0.2 °F 10.9 °F 92% 30.19 in 7.0 mi WNW 10.4 mph - 0.00 in   Overcast
4:53 AM 16.0 °F 4.4 °F 12.9 °F 88% 30.18 in 3.0 mi NNW 9.2 mph - 0.00 in Snow Light Snow
5:20 AM 12.2 °F 4.3 °F 10.4 °F 92% 30.06 in 10.0 mi WNW 4.6 mph - 0.00 in   Overcast
5:53 AM 14.0 °F 2.0 °F 12.0 °F 92% 30.22 in 10.0 mi NNW 9.2 mph - 0.00 in   Overcast
6:53 AM 15.1 °F 5.2 °F 12.9 °F 91% 30.25 in 4.0 mi WNW 6.9 mph - 0.00 in Snow Light Snow
7:12 AM 15.8 °F 3.4 °F 12.2 °F 86% 30.10 in 7.0 mi WNW 10.4 mph - 0.00 in Snow Light Snow
7:38 AM 15.8 °F 3.4 °F 12.2 °F 86% 30.11 in 1.8 mi WNW 10.4 mph - 0.00 in Snow Light Snow
7:53 AM 15.1 °F 2.5 °F 12.0 °F 88% 30.28 in 1.5 mi NW 10.4 mph - 0.00 in Snow Light Snow
7:59 AM 15.8 °F 3.4 °F 12.2 °F 86% 30.12 in 3.0 mi NW 10.4 mph - 0.00 in Snow Light Snow
8:53 AM 17.1 °F 5.8 °F 12.9 °F 84% 30.28 in 4.0 mi NNW 9.2 mph - 0.00 in   Overcast
9:36 AM 15.8 °F 1.4 °F 10.4 °F 79% 30.13 in 5.0 mi NNW 13.8 mph - N/A   Haze
9:53 AM 17.1 °F 2.0 °F 10.9 °F 77% 30.29 in 7.0 mi North 16.1 mph - N/A   Overcast
10:00 AM 17.6 °F 2.7 °F 12.2 °F 79% 30.13 in 6.0 mi NNW 16.1 mph - N/A   Haze
10:32 AM 17.6 °F 3.2 °F 12.2 °F 79% 30.13 in 4.0 mi North 15.0 mph - 0.00 in   Haze
10:53 AM 18.0 °F 4.2 °F 12.0 °F 78% 30.31 in 5.0 mi North 13.8 mph - 0.00 in   Haze
11:53 AM 19.9 °F 7.3 °F 12.9 °F 74% 30.30 in 10.0 mi NNW 12.7 mph - N/A   Overcast
12:53 PM 19.9 °F 5.7 °F 12.0 °F 71% 30.30 in 10.0 mi NW 16.1 mph - N/A   Overcast
1:53 PM 21.9 °F - 12.9 °F 68% 30.29 in - North - - N/A   Unknown
2:53 PM 25.0 °F 13.1 °F 17.1 °F 72% 30.27 in 10.0 mi NW 13.8 mph 20.7 mph N/A   Overcast
3:08 PM 24.8 °F 14.0 °F 15.8 °F 69% 30.12 in 10.0 mi NW 11.5 mph - N/A   Mostly Cloudy
3:15 PM 26.6 °F 14.7 °F 17.6 °F 69% 30.12 in 10.0 mi NNW 15.0 mph - N/A   Mostly Cloudy
3:53 PM 26.1 °F 15.6 °F 16.0 °F 66% 30.27 in 10.0 mi NW 11.5 mph - N/A   Mostly Cloudy
4:53 PM 26.1 °F 13.6 °F 15.1 °F 63% 30.27 in 10.0 mi NW 16.1 mph 21.9 mph N/A   Mostly Cloudy
5:53 PM 23.0 °F 11.7 °F 12.9 °F 65% 30.29 in 10.0 mi North 11.5 mph - N/A   Mostly Cloudy
6:53 PM 21.0 °F 12.4 °F 12.0 °F 68% 30.31 in 10.0 mi North 6.9 mph - N/A   Clear
7:53 PM 18.0 °F 9.8 °F 10.0 °F 71% 30.32 in 10.0 mi NW 5.8 mph - N/A   Clear
8:53 PM 15.1 °F 6.4 °F 10.0 °F 80% 30.32 in 10.0 mi West 5.8 mph - N/A   Clear
9:53 PM 12.9 °F 2.6 °F 9.0 °F 84% 30.33 in 10.0 mi West 6.9 mph - N/A   Clear
10:53 PM 14.0 °F 5.1 °F 9.0 °F 80% 30.33 in 10.0 mi NNW 5.8 mph - N/A   Clear
11:53 PM 14.0 °F - 10.0 °F 84% 30.32 in 10.0 mi Calm Calm - N/A   Overcast